Location: Oracle State Park
(32.6095°N, 110.7330°W)
Time: 09:13:34
(UTC-07:00)

N. Korean satellite - Visible Passes

Search period start: 20 October 2019 00:00
Search period end: 30 October 2019 00:00
Orbit: 455 x 508 km, 97.2° (Epoch: 20 October)

Date Brightness Start Highest point End Pass type
(mag) Time Alt. Az. Time Alt. Az. Time Alt. Az.
20 Oct 8.8 05:43:57 10° NNE 05:47:13 31° E 05:50:31 10° SSE visible
21 Oct 10.1 05:19:47 10° ENE 05:21:50 14° E 05:23:54 10° SE visible
22 Oct 10.1 18:32:25 10° SW 18:34:13 14° W 18:36:01 10° WNW visible
23 Oct 7.4 06:01:07 10° NNE 06:04:43 58° E 06:08:21 10° S visible
23 Oct 8.7 18:05:45 10° SSW 18:08:48 31° W 18:11:53 10° NNW visible
24 Oct 9.3 05:36:19 10° NE 05:39:23 25° E 05:42:27 10° SSE visible
25 Oct 10.4 05:12:40 10° ENE 05:13:58 11° E 05:15:14 10° ESE visible
26 Oct 9.8 18:23:55 10° SW 18:26:17 18° W 18:28:40 10° NW visible
27 Oct 8.0 05:53:19 10° NNE 05:56:52 44° E 06:00:24 10° S visible
27 Oct 8.1 17:57:38 10° S 18:00:52 40° W 18:04:10 10° NNW visible
28 Oct 9.7 05:28:43 10° NE 05:31:29 20° E 05:34:15 10° SE visible
